This demonstration page uses our WeatherBlox Daily Observations layout. Learn more.

Left ArrowRight Arrow

Hourly Observations for February 16, 2015

Temp ( °F °C ) Dew Point ( °F °C ) Humidity (%) Winds ( mph kmh ) Pressure ( in mb ) Visibility ( mi km ) Precip ( " mm )
12:53 am 00:53 Cloudy 10 -12.2 -2 -18.9 58 58 E 10 17 30.45 1031 10 16.0934 N/A
1:53 am 01:53 Cloudy 10 -12.2 -2 -18.9 58 58 E 9 15 30.44 1031 10 16.0934 N/A
2:53 am 02:53 Cloudy 9 -12.8 -2 -18.9 61 61 ENE 9 15 30.41 1030 10 16.0934 N/A
3:53 am 03:53 Cloudy 9 -12.8 -2 -18.9 61 61 E 9 15 30.39 1029 10 16.0934 N/A
4:53 am 04:53 Cloudy 9 -12.8 -2 -18.9 61 61 ENE 8 13 30.37 1028 10 16.0934 N/A
5:53 am 05:53 Cloudy 9 -12.8 -2 -18.9 61 61 E 12 19 30.35 1028 7 11.26538 N/A
6:53 am 06:53 Cloudy with Light Snow 9 -12.8 N/A 66 66 E 9 15 30.32 1027 3 4.82802 N/A
7:10 am 07:10 Cloudy with Light Snow 8 -13.3 N/A 69 69 E 10 17 30.33 1027 2.5 4.02335 N/A
7:27 am 07:27 Cloudy with Light Snow 8 -13.3 2 -16.7 76 76 E 10 17 30.33 1027 1.75 2.816345 N/A
7:39 am 07:39 Cloudy with Light Snow 9 -12.8 3 -16.1 77 77 E 9 15 30.33 1027 2 3.21868 N/A
7:50 am 07:50 Cloudy with Light Snow 9 -13 1 -17 72 72 E 9 15 30.33 1027 1.5 2.41401 N/A
7:53 am 07:53 Cloudy with Light Snow 8 -13.3 2 -16.7 76 76 E 9 15 30.3 1026 1.25 2.011675 N/A
8:20 am 08:20 Mostly Cloudy with Light Snow 9 -12.8 4 -15.6 80 80 E 8 13 30.3 1026 0.75 1.207005 N/A
8:53 am 08:53 Mostly Cloudy with Light Snow 9 -12.8 4 -15.6 80 80 E 7 11 30.29 1026 0.75 1.207005 0.01 0.254
9:10 am 09:10 Mostly Cloudy with Light Snow 9 -12.8 4 -15.6 80 80 E 9 15 30.3 1026 1 1.60934 N/A
9:20 am 09:20 Mostly Cloudy with Light Snow 9 -12.8 4 -15.6 80 80 E 9 15 30.3 1026 0.75 1.207005 N/A
9:50 am 09:50 Mostly Cloudy with Light Snow 10 -12 3 -16 72 72 E 10 17 30.3 1026 1 1.60934 N/A
9:53 am 09:53 Mostly Cloudy with Light Snow 10 -12.2 4 -15.6 76 76 E 9 15 30.28 1025 1 1.60934 N/A
10:03 am 10:03 Mostly Cloudy with Light Snow 10 -12.2 5 -15 80 80 E 9 15 30.3 1026 0.75 1.207005 0.01 0.254
10:38 am 10:38 Mostly Cloudy with Light Snow 10 -12.2 5 -15 80 80 E 8 13 30.3 1026 1 1.60934 0.01 0.254
10:53 am 10:53 Mostly Cloudy with Light Snow 11 -11.7 5 -15 77 77 E 10 17 30.26 1025 1 1.60934 0.01 0.254
11:01 am 11:01 Mostly Cloudy with Light Snow 10 -12.2 5 -15 80 80 E 9 15 30.27 1025 0.75 1.207005 0.01 0.254
11:39 am 11:39 Mostly Cloudy with Light Snow 11 -11.7 5 -15 77 77 E 9 15 30.24 1024 1 1.60934 0.02 0.508
11:53 am 11:53 Cloudy with Light Snow 11 -11.7 5 -15 77 77 E 10 17 30.21 1023 1 1.60934 0.02 0.508
12:53 pm 12:53 Mostly Cloudy with Light Snow 11 -11.7 5 -15 77 77 E 8 13 30.18 1022 0.75 1.207005 N/A
1:10 pm 13:10 Mostly Cloudy with Snow 11 -11.7 6 -14.4 81 81 NE 8 13 30.18 1022 0.5 0.80467 0.01 0.254
1:53 pm 13:53 Mostly Cloudy with Snow 11 -11.7 6 -14.4 81 81 ENE 12 19 30.11 1020 0.5 0.80467 0.02 0.508
2:28 pm 14:28 Mostly Cloudy with Light Snow 11 -11.7 5 -15 77 77 ENE 10 17 30.12 1020 1 1.60934 0.01 0.254
2:53 pm 14:53 Mostly Cloudy with Light Snow 11 -11.7 6 -14.4 81 81 ENE 7 11 30.07 1018 0.75 1.207005 0.01 0.254
3:44 pm 15:44 Cloudy with Light Snow 12 -11.1 6 -14.4 77 77 ENE 8 13 30.12 1020 1.25 2.011675 N/A
3:53 pm 15:53 Cloudy with Light Snow 12 -11.1 6 -14.4 77 77 ENE 8 13 30.06 1018 1.75 2.816345 N/A
3:58 pm 15:58 Cloudy with Light Snow 12 -11.1 6 -14.4 77 77 ENE 8 13 30.12 1020 2.5 4.02335 N/A
4:07 pm 16:07 Cloudy with Light Snow 12 -11.1 6 -14.4 77 77 ENE 7 11 30.12 1020 4 6.43736 N/A
4:32 pm 16:32 Cloudy with Light Snow 12 -11.1 6 -14.4 77 77 ENE 8 13 30.09 1019 2 3.21868 N/A
4:53 pm 16:53 Cloudy with Light Snow 13 -10.6 6 -14.4 74 74 ENE 9 15 30.04 1017 2.5 4.02335 0.01 0.254
5:24 pm 17:24 Cloudy with Light Snow 12 -11.1 6 -14.4 77 77 NE 6 9 30.09 1019 1.5 2.41401 N/A
5:34 pm 17:34 Cloudy with Light Snow 12 -11.1 7 -13.9 80 80 NE 8 13 30.09 1019 1.25 2.011675 N/A
5:53 pm 17:53 Mostly Cloudy with Light Snow 12 -11.1 7 -13.9 80 80 ENE 6 9 30.03 1017 0.75 1.207005 N/A
6:23 pm 18:23 Cloudy with Light Snow 12 -11.1 8 -13.3 84 84 NNE 8 13 30.09 1019 1.25 2.011675 0.01 0.254
6:28 pm 18:28 Cloudy with Light Snow 12 -11.1 8 -13.3 84 84 NNE 6 9 30.09 1019 2 3.21868 0.01 0.254
6:51 pm 18:51 Cloudy with Light Snow 12 -11 9 -13 85 85 NNE 7 11 30.09 1019 1.75 2.816345 0.01 0.254
6:53 pm 18:53 Cloudy with Light Snow 12 -11.1 8 -13.3 84 84 NNE 7 11 30.04 1017 1.75 2.816345 0.01 0.254
7:05 pm 19:05 Cloudy with Light Snow 12 -11.1 8 -13.3 84 84 N 7 11 30.09 1019 2 3.21868 N/A
7:36 pm 19:36 Cloudy with Light Snow 12 -11.1 7 -13.9 80 80 NNE 5 7 30.12 1020 1.75 2.816345 N/A
7:53 pm 19:53 Cloudy with Light Snow 12 -11.1 7 -13.9 80 80 NNE 7 11 30.04 1017 2 3.21868 N/A
8:01 pm 20:01 Cloudy with Light Snow 12 -11.1 7 -13.9 80 80 NNE 7 11 30.09 1019 2.5 4.02335 N/A
8:16 pm 20:16 Cloudy with Light Snow 12 -11.1 7 -13.9 80 80 NNE 5 7 30.09 1019 3 4.82802 N/A
8:53 pm 20:53 Cloudy with Light Snow 12 -11.1 7 -13.9 80 80 NNE 3 6 30.05 1018 4 6.43736 N/A
9:04 pm 21:04 Cloudy with Haze 12 -11.1 7 -13.9 80 80 NNE 6 9 30.09 1019 6 9.65604 N/A
9:14 pm 21:14 Mostly Cloudy 12 -11.1 7 -13.9 80 80 N 5 7 30.09 1019 7 11.26538 N/A
9:27 pm 21:27 Partly Cloudy 12 -11.1 7 -13.9 80 80 N 3 6 30.09 1019 8 12.87472 N/A
9:53 pm 21:53 Clear 11 -11.7 6 -14.4 81 81 N 6 9 30.04 1017 10 16.0934 N/A
10:53 pm 22:53 Clear 6 -14.4 2 -16.7 83 83 N N/A 30.04 1017 10 16.0934 N/A
11:53 pm 23:53 Clear -1 -18.3 -5 -20.6 82 82 N N/A 30.04 1017 9 14.48406 N/A

Powered by AerisWeather